Location: Recife
(8.0585°S, 34.8848°W)
Time: 22:35:39
(UTC-03:00)

Vanguard 1 Rocket - Pass Details

Date: 18 April 2026
Orbit: 655 x 4212 km, 34.3° (Epoch: 12 May)

Event Time Altitude Azimuth Distance (km) Brightness Sun altitude
Rises 02:56:51 0° 329° (NNW) 6,660 11.6 -36.3°
Reaches altitude 10° 03:04:51 10° 350° (N) 4,738 11.0 -34.3°
Maximum altitude 03:10:41 14° 19° (NNE) 3,656 10.7 -32.9°
Drops below altitude 10° 03:15:08 10° 49° (NE) 3,438 11.0 -31.8°
Sets 03:19:10 0° 74° (ENE) 3,901 11.8 -30.8°
